JBU1962 KPBI-KLGA

Flight info

Callsign JBU1962
Flight time N/A
Altitude 35000
Route SLIDZ3 LENDS GRUBR Y299 SEELO GARIC Q107 HURTS PROUD2
Aircraft A320/M-SDE3FGHIRWY/LB1

Departure

Time 2026-04-14 22:01
Airport Palm Beach International Airport (KPBI)

Arrival

Time N/A
Airport LaGuardia Airport (KLGA)
Time Latitude Longitude Altitude Speed Heading
2026-04-14 20:50 26.68571 -80.08867 22 ft 0 kts 272°
2026-04-14 21:46 26.68571 -80.08853 22 ft 4 kts 270°
2026-04-14 21:47 26.68572 -80.08823 22 ft 4 kts 262°
2026-04-14 21:47 26.68578 -80.08794 22 ft 4 kts 241°
2026-04-14 21:47 26.68591 -80.08778 23 ft 4 kts 170°
2026-04-14 21:47 26.68596 -80.08778 23 ft 0 kts 149°
2026-04-14 21:51 26.68594 -80.08777 22 ft 1 kts 148°
2026-04-14 21:51 26.68567 -80.08768 23 ft 7 kts 176°
2026-04-14 21:51 26.68510 -80.08773 22 ft 9 kts 185°
2026-04-14 21:52 26.68501 -80.08773 22 ft 0 kts 184°
2026-04-14 21:52 26.68496 -80.08773 22 ft 2 kts 182°
2026-04-14 21:52 26.68470 -80.08773 22 ft 8 kts 177°
2026-04-14 21:52 26.68408 -80.08723 22 ft 15 kts 170°
2026-04-14 21:53 26.68341 -80.08788 22 ft 16 kts 261°
2026-04-14 21:53 26.68349 -80.08912 22 ft 17 kts 277°
2026-04-14 21:53 26.68354 -80.09048 22 ft 18 kts 272°
2026-04-14 21:53 26.68360 -80.09197 22 ft 20 kts 272°
2026-04-14 21:54 26.68366 -80.09355 22 ft 21 kts 273°
2026-04-14 21:54 26.68375 -80.09518 22 ft 22 kts 273°
2026-04-14 21:54 26.68381 -80.09682 22 ft 12 kts 271°
2026-04-14 21:54 26.68386 -80.09785 22 ft 14 kts 275°
2026-04-14 21:55 26.68391 -80.09899 22 ft 15 kts 273°
2026-04-14 21:55 26.68397 -80.10025 22 ft 17 kts 272°
2026-04-14 21:55 26.68403 -80.10164 22 ft 19 kts 273°
2026-04-14 21:55 26.68409 -80.10318 21 ft 20 kts 272°
2026-04-14 21:56 26.68416 -80.10474 21 ft 21 kts 272°
2026-04-14 21:56 26.68421 -80.10603 21 ft 13 kts 273°
2026-04-14 21:56 26.68428 -80.10712 21 ft 15 kts 273°
2026-04-14 21:56 26.68427 -80.10798 21 ft 0 kts 252°
2026-04-14 21:59 26.68426 -80.10801 21 ft 3 kts 250°
2026-04-14 22:00 26.68376 -80.10824 21 ft 10 kts 180°
2026-04-14 22:00 26.68332 -80.10798 21 ft 12 kts 132°
2026-04-14 22:00 26.68316 -80.10676 21 ft 28 kts 92°
2026-04-14 22:00 26.68292 -80.10175 22 ft 100 kts 93°
2026-04-14 22:01 26.68248 -80.09180 47 ft 151 kts 92°
2026-04-14 22:01 26.68177 -80.07980 635 ft 156 kts 91°
2026-04-14 22:01 26.68141 -80.06753 1306 ft 161 kts 89°
2026-04-14 22:01 26.68147 -80.05426 1550 ft 182 kts 87°
2026-04-14 22:02 26.68445 -80.03947 1663 ft 212 kts 66°
2026-04-14 22:02 26.69172 -80.02404 2037 ft 235 kts 62°
2026-04-14 22:02 26.70009 -80.00794 2805 ft 243 kts 60°
2026-04-14 22:02 26.70865 -79.99150 3693 ft 246 kts 61°
2026-04-14 22:03 26.71769 -79.97495 4499 ft 254 kts 54°
2026-04-14 22:03 26.72948 -79.95998 5373 ft 258 kts 49°
2026-04-14 22:03 26.74158 -79.94481 6153 ft 265 kts 51°
2026-04-14 22:03 26.75381 -79.92910 6910 ft 270 kts 52°
2026-04-14 22:04 26.76622 -79.91300 7637 ft 276 kts 51°
2026-04-14 22:04 26.77882 -79.89657 8360 ft 281 kts 51°
2026-04-14 22:04 26.79164 -79.87990 9109 ft 285 kts 51°
2026-04-14 22:04 26.80469 -79.86299 9817 ft 289 kts 50°
2026-04-14 22:05 26.81805 -79.84569 10320 ft 302 kts 50°
2026-04-14 22:05 26.83229 -79.82720 10472 ft 325 kts 50°
2026-04-14 22:05 26.84743 -79.80756 10753 ft 340 kts 50°
2026-04-14 22:05 26.86283 -79.78756 11308 ft 345 kts 49°
2026-04-14 22:06 26.87853 -79.76716 11979 ft 346 kts 49°
2026-04-14 22:06 26.89431 -79.74665 12610 ft 349 kts 49°
2026-04-14 22:06 26.91024 -79.72595 13242 ft 352 kts 49°
2026-04-14 22:06 26.92658 -79.70544 13855 ft 355 kts 43°
2026-04-14 22:07 26.94461 -79.68642 14416 ft 357 kts 42°
2026-04-14 22:07 26.96281 -79.66731 14982 ft 359 kts 41°
2026-04-14 22:07 26.98108 -79.64811 15573 ft 361 kts 41°
2026-04-14 22:07 26.99945 -79.62876 16149 ft 363 kts 41°
2026-04-14 22:08 27.01786 -79.60931 16715 ft 365 kts 41°
2026-04-14 22:08 27.03638 -79.58974 17284 ft 367 kts 41°
2026-04-14 22:08 27.05503 -79.57003 17823 ft 370 kts 41°
2026-04-14 22:08 27.07380 -79.55018 18406 ft 372 kts 41°
2026-04-14 22:09 27.09269 -79.53022 18875 ft 375 kts 41°
2026-04-14 22:09 27.11181 -79.51002 19351 ft 379 kts 41°
2026-04-14 22:09 27.13108 -79.48964 19837 ft 382 kts 41°
2026-04-14 22:09 27.15045 -79.46906 20347 ft 385 kts 41°
2026-04-14 22:10 27.16996 -79.44840 20867 ft 387 kts 41°
2026-04-14 22:10 27.18967 -79.42755 21369 ft 391 kts 41°
2026-04-14 22:10 27.20948 -79.40655 21892 ft 393 kts 41°
2026-04-14 22:10 27.22944 -79.38539 22405 ft 396 kts 41°
2026-04-14 22:11 27.24952 -79.36407 22891 ft 399 kts 41°
2026-04-14 22:11 27.26975 -79.34258 23380 ft 401 kts 41°
2026-04-14 22:11 27.29010 -79.32096 23838 ft 404 kts 41°
2026-04-14 22:11 27.31059 -79.29916 24232 ft 407 kts 41°
2026-04-14 22:12 27.33122 -79.27719 24607 ft 410 kts 41°
2026-04-14 22:12 27.35202 -79.25508 24964 ft 413 kts 41°
2026-04-14 22:12 27.37297 -79.23278 25335 ft 416 kts 41°
2026-04-14 22:12 27.39400 -79.21038 25689 ft 418 kts 41°
2026-04-14 22:13 27.41523 -79.18776 26037 ft 422 kts 41°
2026-04-14 22:13 27.43660 -79.16499 26382 ft 425 kts 41°
2026-04-14 22:13 27.45813 -79.14205 26720 ft 427 kts 41°
2026-04-14 22:13 27.47979 -79.11894 27060 ft 430 kts 41°
2026-04-14 22:14 27.50128 -79.09597 27390 ft 433 kts 41°
2026-04-14 22:14 27.52320 -79.07252 27722 ft 436 kts 41°
2026-04-14 22:14 27.54525 -79.04891 28055 ft 439 kts 41°
2026-04-14 22:14 27.56741 -79.02521 28402 ft 441 kts 40°
2026-04-14 22:15 27.58974 -79.00132 28731 ft 444 kts 40°
2026-04-14 22:15 27.61219 -78.97724 29057 ft 447 kts 40°
2026-04-14 22:15 27.63484 -78.95313 29384 ft 449 kts 38°
2026-04-14 22:15 27.65973 -78.93199 29701 ft 447 kts 28°
2026-04-14 22:16 27.68726 -78.91601 30012 ft 446 kts 19°
2026-04-14 22:16 27.71681 -78.90565 30313 ft 445 kts
2026-04-14 22:16 27.74744 -78.90058 30580 ft 445 kts
2026-04-14 22:16 27.77824 -78.89642 30850 ft 447 kts
2026-04-14 22:17 27.80906 -78.89217 31231 ft 445 kts
2026-04-14 22:17 27.83976 -78.88785 31638 ft 444 kts
2026-04-14 22:17 27.87029 -78.88350 32045 ft 442 kts
2026-04-14 22:17 27.90077 -78.87916 32449 ft 441 kts
2026-04-14 22:18 27.93116 -78.87482 32858 ft 439 kts
2026-04-14 22:18 27.96142 -78.87052 33282 ft 437 kts
2026-04-14 22:18 27.99157 -78.86629 33706 ft 436 kts
2026-04-14 22:18 28.02161 -78.86210 34132 ft 434 kts
2026-04-14 22:19 28.05155 -78.85794 34505 ft 433 kts
2026-04-14 22:19 28.11113 -78.84967 35143 ft 432 kts
2026-04-14 22:20 28.17087 -78.84124 35237 ft 434 kts
2026-04-14 22:20 28.23078 -78.83266 35240 ft 433 kts
2026-04-14 22:21 28.29014 -78.82415 35240 ft 432 kts
2026-04-14 22:21 28.34979 -78.81573 35241 ft 432 kts
2026-04-14 22:22 28.40962 -78.80731 35243 ft 432 kts
2026-04-14 22:22 28.46928 -78.79881 35252 ft 431 kts
2026-04-14 22:23 28.52871 -78.79034 35262 ft 430 kts
2026-04-14 22:23 28.58807 -78.78187 35269 ft 430 kts
2026-04-14 22:24 28.64733 -78.77336 35262 ft 427 kts
2026-04-14 22:24 28.70588 -78.76503 35247 ft 422 kts
2026-04-14 22:25 28.76417 -78.75676 35249 ft 422 kts
2026-04-14 22:25 28.82263 -78.74839 35250 ft 425 kts
2026-04-14 22:26 28.88168 -78.73988 35248 ft 429 kts
2026-04-14 22:26 28.94100 -78.73135 35249 ft 430 kts
2026-04-14 22:27 29.00040 -78.72284 35254 ft 430 kts
2026-04-14 22:27 29.05978 -78.71436 35262 ft 430 kts
2026-04-14 22:28 29.11875 -78.70583 35266 ft 430 kts
2026-04-14 22:28 29.17805 -78.69729 35267 ft 429 kts
2026-04-14 22:29 29.23737 -78.68875 35273 ft 429 kts
2026-04-14 22:29 29.29666 -78.68018 35278 ft 429 kts
2026-04-14 22:30 29.35588 -78.67154 35275 ft 429 kts
2026-04-14 22:30 29.41515 -78.66305 35278 ft 429 kts
2026-04-14 22:31 29.47437 -78.65482 35280 ft 428 kts
2026-04-14 22:31 29.53353 -78.64659 35280 ft 428 kts
2026-04-14 22:32 29.59268 -78.63827 35277 ft 428 kts
2026-04-14 22:32 29.65181 -78.62990 35274 ft 428 kts
2026-04-14 22:33 29.71090 -78.62155 35277 ft 428 kts
2026-04-14 22:33 29.76999 -78.61323 35278 ft 428 kts
2026-04-14 22:34 29.82897 -78.60483 35276 ft 427 kts
2026-04-14 22:34 29.88799 -78.59648 35275 ft 427 kts
2026-04-14 22:35 29.94702 -78.58807 35275 ft 428 kts
2026-04-14 22:35 30.00611 -78.57964 35275 ft 428 kts
2026-04-14 22:36 30.06516 -78.57122 35271 ft 428 kts
2026-04-14 22:36 30.12421 -78.56284 35269 ft 427 kts
2026-04-14 22:37 30.18285 -78.55446 35269 ft 427 kts
2026-04-14 22:37 30.24230 -78.54598 35270 ft 428 kts
2026-04-14 22:38 30.30099 -78.53756 35274 ft 428 kts
2026-04-14 22:38 30.36004 -78.52906 35277 ft 428 kts
2026-04-14 22:39 30.41912 -78.52061 35277 ft 428 kts
2026-04-14 22:39 30.47819 -78.51154 35266 ft 428 kts
2026-04-14 22:40 30.53718 -78.50173 35272 ft 428 kts
2026-04-14 22:40 30.59619 -78.49196 35275 ft 428 kts
2026-04-14 22:41 30.65524 -78.48233 35280 ft 428 kts
2026-04-14 22:41 30.71429 -78.47282 35279 ft 428 kts
2026-04-14 22:42 30.77324 -78.46326 35273 ft 428 kts
2026-04-14 22:42 30.83228 -78.45360 35273 ft 429 kts
2026-04-14 22:43 30.89137 -78.44397 35273 ft 429 kts
2026-04-14 22:43 30.95049 -78.43436 35272 ft 429 kts
2026-04-14 22:44 31.00964 -78.42476 35276 ft 429 kts
2026-04-14 22:44 31.06880 -78.41503 35275 ft 429 kts
2026-04-14 22:45 31.12793 -78.40526 35270 ft 429 kts
2026-04-14 22:45 31.18713 -78.39557 35274 ft 429 kts